User: anonymous   Login
Location: *
(58.7167°N, 26.1833°E)
Time: 07:13:21
(UTC+00:00)
Language:

Cosmos 1666 - Orbit

View from above orbital plane
View from above orbital plane
View from above satellite
View from above satellite

Ground track
Ground track

The orbit data is extracted from the following two-line orbital elements,

1 15889U 85058A   19292.89725497 +.00000794 +00000-0 +36664-4 0  9990
2 15889 082.4897 226.9257 0016335 333.9823 026.0588 15.18649555871557
Epoch (UTC): 19 October 2019 21:32:02
Eccentricity: 0.0016335
inclination: 82.4897°
perigee height: 498 km
apogee height: 521 km
right ascension of ascending node: 226.9257°
argument of perigee: 333.9823°
revolutions per day: 15.18649555
mean anomaly at epoch: 26.0588°
orbit number at epoch: 87155

The dashed part of the orbit path shows where the satellite is in the earth's shadow,  

DLR